User: anonymous   Login
Location: Pcim
(49.7500°N, 19.9670°E)
Time: 10:34:46
(UTC+02:00)
Language:

Envisat - Orbit

View from above orbital plane
View from above orbital plane
View from above satellite
View from above satellite

Ground track
Ground track

The orbit data is extracted from the following two-line orbital elements,

1 27386U 02009A   24203.18790469  .00000362  00000-0  13199-3 0  9999
2 27386  98.2843 163.0988 0001388  84.7087  46.2786 14.38610756173466
Epoch (UTC): 21 July 2024 04:30:34
Eccentricity: 0.0001388
inclination: 98.2843°
perigee height: 762 km
apogee height: 764 km
right ascension of ascending node: 163.0988°
argument of perigee: 84.7087°
revolutions per day: 14.38610756
mean anomaly at epoch: 46.2786°
orbit number at epoch: 17346

The dashed part of the orbit path shows where the satellite is in the earth's shadow,  

DLR